World > North America > United States > Texas

Lafkin, Texas Regional Weather

Lat: 26.16N, Lon: 97.82W
Wx Zone: TXZ255Web Search
Lafkin Weather Warning NWS WEATHER ALERT FOR THE LAFKIN, TX AREA - Issued: 320 AM CDT Sat Apr 17 2021 Lafkin Weather Warning  

Our weather pages are very print friendly and they make great conversation starters.

Feedback


°F Click to change Lafkin hourly weather to Imperial units.Click to change Lafkin hourly weather to Metric units. °C
Lafkin Weather Map
UTC Time: 4/17/2021, 19:51
Your Time:

Lafkin, TX Regional Weather

Expires:202104172000;;703932
ASUS44 KSJT 171915
RWRSJT
WEST CENTRAL TEXAS REGIONAL WEATHER ROUNDUP
NATIONAL WEATHER SERVICE SAN ANGELO TX
200 PM CDT SAT APR 17 2021

NOTE: "FAIR" INDICATES FEW OR NO CLOUDS BELOW 12,000 FEET WITH NO
SIGNIFICANT WEATHER AND/OR OBSTRUCTIONS TO VISIBILITY.


TXZ229-232-234-239-242-243-245-247-249-250-
253-255-257-343-347-443-172000-
TEXAS COASTAL BEND, RIO GRANDE PLAINS DEEP SOUTH TEXAS
  
CITY           SKY/WX    TMP DP  RH WIND       PRES   REMARKS
VICTORIA       CLOUDY    63  50  62 N15       29.99F                  
BEEVILLE       CLOUDY    61  53  73 N9        30.00R                  
ROCKPORT       CLOUDY    61  55  81 N15G26    29.97F                  
PORT ARANSAS   CLOUDY    59  55  88 N20       29.99F                  
PORT LAVACA    MOCLDY    64  53  68 N18G26    29.97F                  
CORPUS CHRISTI LGT RAIN  60  55  83 N15       30.00S                  
KINGSVILLE NAS CLOUDY    61  55  81 N15       29.98F                  
COTULLA        CLOUDY    72  42  34 VRB3      30.02F                  
LAREDO         CLOUDY    68  50  52 N9        30.01F                  
BROWNSVILLE    CLOUDY    61  57  87 N17G25    29.93S                  
PORT ISABEL    LGT RAIN  62  59  90 N17       29.93F                  
HEBBRONVILLE   MOCLDY    58  46  63 N13       30.02F                  
MCALLEN        LGT RAIN  59  57  93 NW16G28   29.99F FOG              
WESLACO        NOT AVBL                                               
FALFURRIAS     CLOUDY    55  53  92 N10       29.99F             

SKY/WX - Weather  TMP - Temperature  DP - Dew Point  RH - Relative Humidity
WIND - Wind Direction/Speed PRES - Barometric Pressure VSB - Visibility
WCI - Wind Chill Index E13G22 Wind - East Wind 13 mph/Gusts of 22 mph